Lid_Strength_Index
7 8 10 9 6 6 5 4 5 5 5 6 7 4 3 1 0 -0 -0 -1 -1 -1 -1 -1 -1 -1 -1 -1 -1 -1 -1 -1
7 9 7 7 6 5 5 4 3 4 7 5 2 3 1 0 0 0 0 -0 -1 -1 -1 -1 -1 -1 -1 -1 -1 -1 -1 -1
8 8 6 5 5 5 5 5 4 5 8 6 3 1 1 1 0 0 0 -0 -1 -1 -1 -1 -1 -1 -1 -1 -1 -1 -1 -1
9 8 6 5 5 5 5 4 4 5 7 7 2 2 1 0 0 0 0 -0 -0 -1 -1 -1 -1 -1 -1 -1 -1 -1 -1 -1
8 8 7 6 4 5 5 5 5 3 6 5 3 2 1 1 0 0 0 -0 -0 -1 -1 -1 -1 -1 -1 -1 -1 -1 -1 -1
7 8 7 5 5 4 4 5 4 4 6 6 3 1 1 1 1 0 0 0 -0 -1 -0 -1 -1 -1 -1 -1 -1 -1 -1 -1
7 7 6 5 5 4 3 4 4 3 3 3 2 1 1 2 1 1 1 0 -0 -0 -0 -0 -1 -1 -1 -1 -1 -1 -1 -1
5 5 6 5 5 4 5 4 4 4 3 2 2 2 2 2 2 2 2 1 0 -0 -0 -0 0 -1 -1 -1 -1 -1 -1 -1
5 5 4 5 5 4 5 5 4 4 3 2 2 2 2 2 2 2 1 1 0 0 0 -0 -0 1 0 -0 -1 -1 -1 -1
5 5 5 5 4 5 5 4 3 3 2 2 2 2 2 2 2 2 2 1 1 0 0 -0 -0 -0 0 0 -0 1 -1 -1
5 5 5 5 6 5 5 3 3 3 3 3 2 2 1 1 1 1 1 1 1 0 0 0 -1 -0 -0 -0 0 -0 -0 -1
5 5 5 6 6 5 5 3 3 3 3 3 2 2 1 1 1 1 0 0 -0 0 0 -0 -1 -1 -0 -0 -0 -0 -0 -1
5 5 5 5 7 6 4 3 4 4 3 3 2 2 2 1 0 -1 -1 -4 -1 -0 0 -0 -1 -0 -1 -0 -0 1 -0 2
6 5 5 5 8 5 4 4 5 4 4 3 2 2 1 1 0 0 -0 0 -2 -0 0 0 -0 -0 -0 -1 -1 -0 2 3
7 5 5 6 8 5 4 4 4 4 4 3 3 2 2 1 1 1 0 0 -0 -1 0 0 -0 -0 -1 -1 -1 -1 -1 1
9 6 6 7 7 5 4 4 4 4 4 3 3 3 2 1 1 1 1 0 0 0 -0 0 0 -0 -0 -0 -0 -0 0 1
7 6 6 7 7 6 5 4 5 4 4 4 3 2 1 1 1 1 1 1 1 1 1 1 1 1 1 1 1 0 0 1
7 6 6 7 7 6 5 5 4 4 4 4 3 3 2 2 1 1 1 1 1 1 1 1 1 1 0 1 0 -0 -0 -0
8 7 6 7 8 7 5 5 4 4 4 3 3 3 3 2 2 1 2 2 1 1 1 1 0 0 0 0 0 0 1 0
8 8 11 7 12 8 7 6 5 5 4 4 3 3 2 3 2 2 2 1 1 1 1 1 0 1 1 2 2 1 1 0